Weather in Alekseyevka 2-ya

Russia / Lipetsk Oblast     52°05′37″N   38°00′39″E
temp.,
°C
wind,
m/s
gust,
m/s
humid.,
%
clouds,
%
prec.,
mm/h
press.,
hPa
HPBL,
m
23 april, fri
fri2300:00+9s378078 0.0 1020112
03:00+8s378081 0.0 1019127
06:00+9s387999 0.0 1019156
09:00+13s58627 0.4 1018507
12:00+16s684689 1.1 10172349
15:00+15s585489 1.3 10151687
18:00+14s586125 0.2 1013679
21:00+10sw4108172 1.3 1013318
24 april, sat
sat2400:00+8ssw3894100 0.4 1012247
03:00+7wnw5894100 5.2 1010584
06:00+3wnw71296100 2.4 1011641
09:00+6w577886 3.1 1011907
12:00+8w7959100 0.8 10111626
15:00+8w9114879 1.3 10112035
18:00+6w8125211 0.4 10122009
21:00+3w813755 0.4 1014955
25 april, sun
sun2500:00+2w714775 0.0 1015723
03:00+1w714795 0.0 1016551
06:00+1wsw613795 0.0 1017498
09:00+5wsw712585 0.0 10171369
12:00+9wsw81040100 0.0 10162607
15:00+10sw81137100 0.0 10152519
18:00+6wsw71188100 1.3 10151023
21:00+5w5107990 1.8 1016779
26 april, mon
mon2600:00+2wsw3788100 0.0 1017160
03:00+1wsw33888 0.0 101660
06:00+1w23875 0.0 101684
09:00+5w33597 0.0 1016902
12:00+8wsw3444100 0.0 10141974
15:00+9wsw3441100 0.0 10131881
18:00+8wsw3447100 0.0 10111602
21:00+5w3566100 0.1 1012132
27 april, tue
tue2700:00+3wsw358191 0.1 1011116
03:00+1wsw37875 0.2 1011165
06:00+1wsw499297 0.0 1011418
09:00+3w697750 1.3 1011926
12:00+7w81050100 0.5 10112219
15:00+7w8105099 2.1 10111914
18:00+6w7106298 0.8 10121318
21:00+3wsw410817 0.9 1013311